ANDESITE

Satellite information

Favourite Embed

Satellite Type and Status

PAYLOADIN ORBIT

Key statistics

Satellite ANDESITE at a glance.

Uptime

1959

Days in orbit

Revolutions

≈ 15.0

Per day

Orbit

SSO

Sun Synchronous Orbit

Inclination

97.8

Latest

Satellite identification and parameters

Extended collection of information and parameters for ANDESITE.

Object identification

Identified? True

Debris? False

Object name: ANDESITE

International designator: 2020-037D

Object number (NORAD): 45726

Object ID (CCSDS): 45726

Country: UNITED STATES OF AMERICA (US)

Current information (Y/N): Y

RCS size: SMALL

Orbital parameters

Period: 95.754 minutes

Inclination: 97.7888 deg

SMA: 6933.186 km

Apoapsis: 560.745 km

Periapsis: 549.356 km

RAAN: 122.459 deg

Eccentricy: 0.0008213

Argument of periapsis: 248.4806 deg

Mean anomaly: 111.5544 deg

Mean motion: 15.03846565 rev/day

Mean motion (dot): 0.00005185 rev/day2

B* drag term: 0.0003811 1/REarth

Two-line elements (TLE)

Creation date: Oct. 23, 2025, 10:16 p.m.

Reference frame: TEME

Reference center: EARTH

Epoch: Oct. 23, 2025, 11:01 a.m. UTC

TLE line 0: 0 ANDESITE

TLE line 1: 1 45726U 20037D 25296.45939664 .00005185 00000-0 38110-3 0 9991

TLE line 2: 2 45726 97.7888 122.4590 0008213 248.4806 111.5544 15.03846565290063

Live tracking on map

Real-time ground track for satellite ANDESITE.

In-orbit conjunctions

There are no conjunctions computed for ANDESITE, at the moment. Check back to stay up to date, as we update our databases every day.

Go to all conjunctions

Associated space launch

This rideshare mission carries small satellites for NASA, University of New South Wales and for NRO. The mission has been named "Don't Stop Me Now" in recognition of Rocket Lab board member and avid Queen fan Scott Smith, who recently passed away.

ANDESITE was lifted into orbit during the mission ‘Electron | Don't Stop Me Now (Rideshare)’, on board a Electron space rocket.

The launch took place on June 13, 2020, 5:12 a.m. from Rocket Lab Launch Complex 1A.

For more information about the launch, click the button.

Launch to space Electron | Don't Stop Me Now (Rideshare)
Electron | Don't Stop Me Now (Rideshare)

Agency: N/A

Status: Launch Successful

Launch date: June 13, 2020, 5:12 a.m. UTC

Rocket: Electron

Launch pad: Rocket Lab Launch Complex 1A

Location: Rocket Lab Launch Complex 1, Mahia Peninsula, New Zealand

...

Latest news about this satellite

News about space launch
Rocket Lab launches 12th Electron, continues work on future plans

News about space launch
University-built CubeSat launched with swarm of auroral science nodes

News about space launch
Rocket Lab launches NRO, university payloads


Newsletter sign-up

Weekly statistics, charts and insights to help you stay on top of the space industry.